South Bend, IN

10:11 AM EDT on May 27, 2018 (GMT -0400)
South Bend Regional

Weather History for KSBN - April, 2014

Change the Weather History Date:

Tuesday, April 15, 2014

  Actual Average Record
Temperature  
Mean Temperature 31 °F 49 °F  
Max Temperature 35 °F 59 °F 87 °F (2002)
Min Temperature 27 °F 39 °F 19 °F (1928)
Degree Days  
Heating Degree Days 34 16  
Month to date heating degree days 271 284  
Since 1 July heating degree days 6530 5828  
Cooling Degree Days 0 0  
Month to date cooling degree days 2 0  
Year to date cooling degree days 2 1  
Moisture  
Dew Point 15 °F    
Average Humidity 54    
Maximum Humidity 75    
Minimum Humidity 32    
Precipitation  
Precipitation T in 0.11 in 2.24 in (1937)
Month to date precipitation 1.41 1.57  
Year to date precipitation 9.04 8.23  
Snow  
Snow 0.00 in 0.10 in 0.50 in (1961)
Month to date snowfall 1.1  
Since 1 July snowfall 66.3  
Snow Depth -    
Sea Level Pressure  
Sea Level Pressure 30.10 in    
Wind  
Wind Speed 13 mph (NNW)    
Max Wind Speed 26 mph    
Max Gust Speed 36 mph    
Visibility 10 miles    
Events      
T = Trace of Precipitation, MM = Missing Value Source: NWS Daily Summary

Daily Weather History Graph

Daily Weather History Graph

Search for Another Location

Airport or City:

Astronomy

Apr. 15, 2014 Rise Set
Actual Time 7:05 AM EDT 8:26 PM EDT
Civil Twilight 6:36 AM EDT 8:54 PM EDT
Nautical Twilight 6:01 AM EDT 9:29 PM EDT
Astronomical Twilight 5:25 AM EDT 10:06 PM EDT
Moon 9:07 PM EDT (4/15) 7:12 AM EDT (4/15)
Length of Visible Light 14h 18m
Length of Day
13h 20m
Full, 100% of the Moon is Illuminated
Apr 15
Full
Apr 22
Last Quarter
Apr 29
New
May 6
First Quarter
May 14
Full

Hourly Weather History & Observations

Time (EDT) Temp. Windchill Dew Point Humidity Pressure Visibility Wind Dir Wind Speed Gust Speed Precip Events Conditions
12:54 AM 30.0 °F 19.5 °F 24.1 °F 79% 29.95 in 10.0 mi NNW 13.8 mph - 0.00 in   Overcast
1:54 AM 28.9 °F 16.1 °F 21.9 °F 75% 29.95 in 10.0 mi NNW 19.6 mph 26.5 mph N/A   Overcast
2:54 AM 28.9 °F 16.1 °F 21.0 °F 72% 29.96 in 10.0 mi NNW 19.6 mph 27.6 mph N/A   Overcast
3:54 AM 28.9 °F 16.5 °F 19.9 °F 69% 29.96 in 10.0 mi NNW 18.4 mph - N/A   Overcast
4:21 AM 28.0 °F 17.5 °F 19.0 °F 69% 29.94 in 10.0 mi North 12.7 mph - N/A   Mostly Cloudy
4:54 AM 28.0 °F 17.5 °F 18.0 °F 66% 29.97 in 10.0 mi North 12.7 mph - N/A   Mostly Cloudy
5:54 AM 28.0 °F 17.0 °F 19.0 °F 69% 29.99 in 10.0 mi North 13.8 mph - N/A   Overcast
6:54 AM 28.0 °F 16.5 °F 15.1 °F 58% 30.01 in 10.0 mi NNW 15.0 mph 25.3 mph N/A   Scattered Clouds
7:54 AM 28.0 °F 17.5 °F 15.1 °F 58% 30.04 in 10.0 mi NNW 12.7 mph - N/A   Overcast
8:54 AM 28.0 °F 16.5 °F 16.0 °F 61% 30.06 in 10.0 mi NNW 15.0 mph 20.7 mph N/A   Scattered Clouds
9:54 AM 30.0 °F 16.6 °F 14.0 °F 51% 30.08 in 10.0 mi NNW 23.0 mph 31.1 mph N/A   Mostly Cloudy
10:54 AM 30.9 °F 18.7 °F 14.0 °F 50% 30.10 in 10.0 mi NW 19.6 mph - N/A   Overcast
11:54 AM 30.0 °F 17.2 °F 14.0 °F 51% 30.13 in 10.0 mi NW 20.7 mph 28.8 mph N/A   Mostly Cloudy
12:54 PM 32.0 °F 20.5 °F 12.9 °F 45% 30.15 in 10.0 mi NW 18.4 mph 35.7 mph N/A   Mostly Cloudy
1:54 PM 32.0 °F 20.8 °F 12.9 °F 45% 30.16 in 10.0 mi NNW 17.3 mph 25.3 mph 0.00 in   Mostly Cloudy
2:54 PM 33.1 °F 22.2 °F 10.0 °F 38% 30.17 in 10.0 mi NW 17.3 mph 28.8 mph N/A   Scattered Clouds
3:54 PM 34.0 °F 22.7 °F 7.0 °F 32% 30.19 in 10.0 mi NNW 19.6 mph 24.2 mph N/A   Scattered Clouds
4:54 PM 35.1 °F 26.4 °F 9.0 °F 34% 30.19 in 10.0 mi WNW 12.7 mph 20.7 mph N/A   Clear
5:54 PM 34.0 °F 23.8 °F 10.0 °F 37% 30.19 in 10.0 mi WNW 16.1 mph 23.0 mph N/A   Clear
6:54 PM 35.1 °F 26.9 °F 10.9 °F 37% 30.21 in 10.0 mi NW 11.5 mph - N/A   Clear
7:54 PM 32.0 °F 26.4 °F 12.0 °F 44% 30.22 in 10.0 mi WNW 5.8 mph - N/A   Clear
8:54 PM 30.0 °F - 12.0 °F 47% 30.23 in 10.0 mi Calm Calm - N/A   Clear
10:54 PM 30.0 °F - 12.9 °F 49% 30.26 in 10.0 mi Calm Calm - N/A   Clear
11:54 PM 28.9 °F 23.9 °F 14.0 °F 54% 30.26 in 10.0 mi ESE 4.6 mph - N/A   Clear